Austin, TX

11:19 PM CST on December 07, 2016 (GMT -0600)
Austin Bergstrom International

Weather History for KAUS - February, 2014

Change the Weather History Date:

Saturday, February 15, 2014

  Actual Average Record
Temperature  
Mean Temperature 53 °F 52 °F  
Max Temperature 74 °F 65 °F 83 °F (1980)
Min Temperature 32 °F 39 °F 23 °F (2007)
Degree Days  
Heating Degree Days 12 13  
Month to date heating degree days 286 216  
Since 1 July heating degree days 1729 1458  
Cooling Degree Days 0 0  
Month to date cooling degree days 0 0  
Year to date cooling degree days 1 5  
Growing Degree Days 8 (Base 50)    
Moisture  
Dew Point 36 °F    
Average Humidity 56    
Maximum Humidity 86    
Minimum Humidity 26    
Precipitation  
Precipitation 0.00 in 0.08 in 0.85 in (1983)
Month to date precipitation 0.23 1.20  
Year to date precipitation 0.80 3.40  
Snow  
Snow 0.00 in - - ()
Month to date snowfall T  
Since 1 July snowfall T  
Snow Depth 0.00 in    
Sea Level Pressure  
Sea Level Pressure 30.09 in    
Wind  
Wind Speed 6 mph (SSE)    
Max Wind Speed 22 mph    
Max Gust Speed 29 mph    
Visibility 10 miles    
Events      
T = Trace of Precipitation, MM = Missing Value Source: NWS Daily Summary

Daily Weather History Graph

Daily Weather History Graph

Search for Another Location

Airport or City:

Trip Planner

Search our weather history database for the weather conditions in past years. The results will help you decide how hot, cold, wet, or windy it might be!

Date:

Astronomy

Feb. 15, 2014 Rise Set
Actual Time 7:10 AM CST 6:19 PM CST
Civil Twilight 6:46 AM CST 6:43 PM CST
Nautical Twilight 6:18 AM CST 7:11 PM CST
Astronomical Twilight 5:50 AM CST 7:39 PM CST
Moon 7:12 PM CST (2/15) 7:16 AM CST (2/15)
Length of Visible Light 11h 57m
Length of Day
11h 08m
Waxing Gibbous, 99% of the Moon is Illuminated
Feb 15
Waxing Gibbous
Feb 22
Last Quarter
Mar 1
New
Mar 8
First Quarter
Mar 16
Full

Hourly Weather History & Observations

Time (CST) Temp. Windchill Dew Point Humidity Pressure Visibility Wind Dir Wind Speed Gust Speed Precip Events Conditions
12:53 AM 46.0 °F - 26.1 °F 46% 30.08 in 10.0 mi Calm Calm - N/A   Mostly Cloudy
1:53 AM 42.1 °F - 27.0 °F 55% 30.11 in 10.0 mi Calm Calm - N/A   Partly Cloudy
2:53 AM 39.0 °F - 27.0 °F 62% 30.11 in 10.0 mi Calm Calm - N/A   Clear
3:53 AM 34.0 °F - 28.0 °F 79% 30.11 in 10.0 mi Calm Calm - N/A   Clear
4:53 AM 35.1 °F 32.2 °F 28.0 °F 76% 30.11 in 10.0 mi North 3.5 mph - N/A   Clear
5:53 AM 36.0 °F - 28.0 °F 73% 30.13 in 10.0 mi Calm Calm - N/A   Partly Cloudy
6:53 AM 36.0 °F - 28.9 °F 76% 30.15 in 10.0 mi Calm Calm - N/A   Partly Cloudy
7:53 AM 37.9 °F - 30.9 °F 76% 30.16 in 10.0 mi Calm Calm - N/A   Partly Cloudy
8:53 AM 51.1 °F - 30.0 °F 44% 30.16 in 10.0 mi NE 4.6 mph - N/A   Partly Cloudy
9:53 AM 55.9 °F - 30.9 °F 39% 30.18 in 10.0 mi Variable 4.6 mph - N/A   Partly Cloudy
10:53 AM 63.0 °F - 32.0 °F 31% 30.16 in 10.0 mi SSE 12.7 mph - N/A   Partly Cloudy
11:53 AM 66.9 °F - 32.0 °F 27% 30.14 in 10.0 mi South 11.5 mph - N/A   Mostly Cloudy
12:53 PM 69.1 °F - 34.0 °F 27% 30.11 in 10.0 mi SSW 12.7 mph 20.7 mph N/A   Mostly Cloudy
1:53 PM 71.1 °F - 35.1 °F 27% 30.07 in 10.0 mi SSE 13.8 mph - N/A   Scattered Clouds
2:53 PM 72.0 °F - 36.0 °F 27% 30.05 in 10.0 mi South 16.1 mph 23.0 mph N/A   Partly Cloudy
3:53 PM 73.0 °F - 37.0 °F 27% 30.03 in 10.0 mi South 17.3 mph 24.2 mph N/A   Partly Cloudy
4:53 PM 73.0 °F - 37.9 °F 28% 30.02 in 10.0 mi South 15.0 mph - N/A   Partly Cloudy
5:53 PM 69.1 °F - 37.0 °F 31% 30.01 in 10.0 mi SSE 12.7 mph - N/A   Scattered Clouds
6:53 PM 64.0 °F - 39.0 °F 40% 30.03 in 10.0 mi SSE 8.1 mph - N/A   Scattered Clouds
7:53 PM 62.1 °F - 45.0 °F 53% 30.04 in 10.0 mi SSE 6.9 mph - N/A   Partly Cloudy
8:53 PM 59.0 °F - 48.0 °F 67% 30.06 in 10.0 mi SSE 4.6 mph - N/A   Partly Cloudy
9:53 PM 53.1 °F - 46.9 °F 80% 30.07 in 10.0 mi Calm Calm - N/A   Partly Cloudy
10:48 PM 48.2 °F - 44.6 °F 87% 30.08 in 10.0 mi Calm Calm - N/A   Mostly Cloudy
10:53 PM 48.9 °F - 44.1 °F 83% 30.07 in 10.0 mi Calm Calm - N/A   Mostly Cloudy
11:53 PM 55.9 °F - 50.0 °F 80% 30.05 in 10.0 mi South 3.5 mph - N/A   Overcast